PDT,Max TemperatureF,Mean TemperatureF,Min TemperatureF,Max Dew PointF,MeanDew PointF,Min DewpointF,Max Humidity, Mean Humidity, Min Humidity, Max Sea Level PressureIn, Mean Sea Level PressureIn, Min Sea Level PressureIn, Max VisibilityMiles, Mean VisibilityMiles, Min VisibilityMiles, Max Wind SpeedMPH, Mean Wind SpeedMPH, Max Gust SpeedMPH,PrecipitationIn, CloudCover, Events, WindDirDegrees
2013-3-1,73,56,39,26,21,12,36,26,16,30.49,30.38,30.31,10,10,10,9,4,,0.00,0,,152
2013-3-2,74,60,45,29,27,20,50,30,18,30.36,30.22,30.04,10,10,10,12,3,,0.00,0,,166
2013-3-3,73,66,56,33,27,19,39,23,18,30.03,29.87,29.76,10,10,10,34,17,43,0.00,1,,209
2013-3-4,72,60,48,36,30,23,54,33,19,30.11,29.99,29.86,10,10,10,17,5,17,0.00,0,,25
2013-3-5,73,58,43,31,28,26,56,32,18,30.14,30.01,29.89,10,10,10,23,7,29,0.00,0,,163
2013-3-6,66,59,52,34,29,24,47,33,20,29.95,29.88,29.84,10,10,10,25,18,31,0.00,0,,202
2013-3-7,59,52,46,32,31,29,56,43,31,29.91,29.86,29.81,10,10,10,28,16,29,0.00,0,,200
2013-3-8,50,46,41,40,36,32,81,69,52,29.86,29.77,29.70,10,9,1,38,13,45,0.05,6,Rain,198
2013-3-9,61,52,43,38,33,28,74,54,29,30.21,30.03,29.86,10,10,10,17,9,,0.00,4,Rain,316
2013-3-10,66,54,41,34,22,15,71,31,14,30.34,30.26,30.20,10,10,10,16,7,21,0.00,0,,80
2013-3-11,72,56,41,25,23,21,49,30,15,30.27,30.18,30.09,10,10,10,10,6,,0.00,0,,186
2013-3-12,75,59,43,30,27,23,48,29,16,30.21,30.15,30.09,10,10,10,10,7,17,0.00,0,Rain,129
2013-3-13,81,64,48,32,30,28,46,29,14,30.27,30.19,30.13,10,10,10,10,8,,0.00,0,Rain,144
2013-3-14,84,69,54,31,28,24,40,24,11,30.22,30.13,30.04,10,10,10,12,6,,0.00,0,Rain,162
2013-3-15,88,74,59,32,26,12,31,20,6,30.03,29.93,29.81,10,10,10,17,9,,0.00,0,Rain,195
2013-3-16,83,70,57,29,19,0,30,15,5,29.87,29.79,29.70,10,10,10,16,10,,0.00,0,,229
2013-3-17,81,69,57,26,12,-2,27,13,5,29.91,29.83,29.71,10,10,10,14,8,18,0.00,0,,229
2013-3-18,73,60,48,16,10,5,22,13,7,30.03,29.94,29.86,10,10,10,13,6,,0.00,0,,130
2013-3-19,78,66,54,23,18,11,23,16,11,30.03,29.97,29.87,10,10,10,13,7,17,0.00,0,,152
2013-3-20,73,67,61,34,29,20,31,23,19,29.99,29.87,29.78,10,10,10,26,14,31,0.00,0,,214
2013-3-21,77,66,54,34,18,0,47,22,6,29.86,29.78,29.71,10,10,10,22,9,29,0.00,0,,219
2013-3-22,73,62,50,15,1,-18,21,10,4,29.86,29.79,29.72,10,10,10,22,8,29,0.00,0,,19
2013-3-23,59,51,43,9,5,-19,23,16,4,30.19,30.08,29.91,10,10,10,20,11,26,0.00,0,,50
2013-3-24,68,52,37,12,6,1,33,17,8,30.14,30.05,29.96,10,10,10,8,2,,0.00,0,,81
2013-3-25,72,58,43,17,14,10,32,18,10,30.06,29.97,29.89,10,10,10,9,3,,0.00,0,,104
2013-3-26,79,67,55,27,18,8,26,16,7,29.87,29.81,29.73,10,10,10,21,10,26,0.00,0,,204
2013-3-27,75,66,56,34,29,23,36,26,16,29.89,29.84,29.78,10,10,10,22,13,25,0.00,0,,206
2013-3-28,77,66,55,37,33,28,47,31,18,30.01,29.95,29.90,10,10,10,16,10,18,0.00,0,,209
2013-3-29,82,69,56,33,29,23,35,24,15,30.10,30.03,29.96,10,10,10,14,9,18,0.00,0,,181
2013-3-30,82,70,59,31,28,24,28,22,14,30.06,30.00,29.94,10,10,10,13,7,,0.00,1,,192
2013-3-31,79,70,61,37,33,27,38,26,16,29.97,29.90,29.83,10,10,10,23,14,30,0.00,0,Rain,216